Tracking 18840 objects as of 19-November-2017
HD Live streaming from Space Station
objects crossing your sky now

FENGYUN 1C DEB

Track FENGYUN 1C DEB now!
10-day predictions


NORAD ID: 31805
Int'l Code: 1999-025CGT
Perigee: 580.2 km
Apogee: 1,401.3 km
Inclination: 98.4 °
Period: 104.8 minutes
Semi major axis: 7361 km
RCS: 0.0166 m2 (small)
Launch date: May 10, 1999
Source: People's Republic of China (PRC)
Launch site: Taiyaun Space Center, China (TSC)

Note: This is SATELLITE DEBRIS
aabbcc
Your satellite tracking list
Your tracking list is empty




NASA's NSSDC Master Catalog

Two Line Element Set (TLE):
1 31805U 99025CGT 17320.93882511 +.00000844 +00000-0 +29994-3 0  9994
2 31805 098.4217 214.0696 0557710 319.0596 036.9909 13.74456574216704
Source of the keplerian elements: AFSPC